Temp
15 14 14 14 14 13 13 13 12 13 13 13 13 13 12 11 12 12 12 12 12 11
14 14 13 13 13 13 13 13 13 12 12 12 12 12 12 12 12 11 11 12 11 11
11 11 12 12 11 11 12 12 12 12 12 12 12 12 11 12 12 12 12 12 11 11
11 10 10 10 10 10 10 10 10 10 10 10 11 11 11 12 11 11 11 11 11 11
10 10 10 10 10 10 10 10 10 10 10 10 9 9 9 10 10 10 10 10 10 11
9 9 9 9 8 8 8 9 9 9 9 9 9 9 9 9 9 9 9 9 9 10
8 8 8 8 8 8 7 7 7 7 8 8 8 7 8 8 8 8 8 8 9 9
7 7 7 7 7 7 6 6 6 6 6 6 6 6 6 7 6 6 7 7 7 8
5 4 4 4 4 4 4 4 4 5 5 5 5 5 5 5 5 5 6 6 7 7
3 3 2 2 2 2 2 2 3 3 3 3 4 4 4 4 4 4 4 4 5 6
2 2 1 1 1 1 1 1 2 2 2 2 3 3 3 3 3 3 3 3 3 4
0 0 0 0 0 0 0 1 1 1 1 2 3 3 2 2 2 2 3 1 2 2
-1 -1 -1 -1 -1 -1 -1 -0 -0 0 1 2 2 1 1 1 0 0 0 1 2 3
-2 -2 -2 -2 -2 -2 -2 -1 -1 -0 0 0 0 -0 0 1 -0 -1 -0 1 2 2
Height
1459 1457 1455 1452 1450 1448 1445 1443 1442 1441 1439 1435 1431 1429 1428 1426 1425 1423 1421 1418 1416 1414
1459 1457 1454 1452 1449 1446 1443 1440 1436 1434 1433 1431 1429 1426 1422 1419 1418 1415 1413 1410 1408 1406
1458 1455 1453 1450 1447 1444 1440 1437 1434 1429 1426 1424 1423 1420 1417 1413 1411 1408 1406 1401 1397 1394
1456 1453 1450 1447 1444 1441 1438 1434 1431 1426 1422 1417 1416 1414 1410 1406 1403 1399 1396 1393 1389 1386
1453 1450 1447 1444 1441 1437 1433 1430 1426 1422 1417 1413 1409 1406 1403 1399 1395 1391 1387 1385 1381 1378
1450 1447 1443 1440 1436 1432 1429 1426 1421 1418 1412 1406 1403 1398 1394 1391 1388 1384 1379 1376 1372 1368
1447 1444 1440 1436 1432 1428 1423 1420 1416 1411 1406 1401 1396 1392 1388 1385 1380 1375 1371 1367 1363 1358
1444 1440 1436 1433 1429 1424 1420 1415 1411 1405 1400 1395 1390 1386 1384 1378 1372 1366 1360 1356 1352 1348
1440 1436 1432 1427 1422 1418 1414 1409 1405 1400 1394 1388 1384 1379 1376 1372 1365 1358 1352 1346 1341 1337
1438 1433 1429 1424 1419 1414 1409 1403 1399 1394 1390 1384 1379 1375 1371 1365 1358 1352 1347 1341 1335 1328
1434 1429 1423 1418 1412 1408 1403 1398 1392 1388 1384 1378 1374 1371 1366 1360 1354 1345 1337 1332 1327 1321
1430 1424 1418 1412 1408 1403 1398 1393 1387 1382 1377 1374 1369 1364 1358 1351 1344 1338 1330 1324 1319 1316
1423 1418 1411 1406 1402 1398 1394 1387 1382 1376 1372 1368 1362 1357 1352 1346 1338 1330 1325 1317 1310 1305
1416 1412 1406 1401 1397 1392 1387 1382 1376 1370 1365 1359 1355 1350 1344 1340 1333 1327 1319 1310 1301 1295
Wind_Speed
18 19 18 18 19 20 21 22 22 24 25 28 32 32 32 37 41 44 47 48 50 51
22 23 23 23 23 23 22 22 22 23 25 26 29 31 33 35 37 42 45 48 49 51
22 23 23 22 23 24 24 25 25 24 23 23 24 26 28 32 37 40 44 47 48 49
18 17 20 21 22 25 28 28 29 28 29 29 29 27 26 27 33 37 40 43 46 47
23 22 24 26 27 28 30 31 31 31 31 32 32 32 33 33 32 32 32 37 41 44
23 26 28 30 31 33 34 34 33 33 34 33 31 31 31 32 35 34 32 32 32 34
23 25 28 31 35 37 37 37 36 36 34 34 34 32 30 30 34 36 38 38 38 37
25 29 31 34 35 36 35 35 36 37 36 34 32 31 31 35 37 38 39 39 39 38
25 28 30 31 31 30 30 32 34 33 34 35 34 35 34 31 36 38 40 43 42 38
29 30 29 29 29 28 30 31 28 32 31 33 33 32 31 32 35 38 41 42 41 40
29 30 31 31 31 32 33 30 33 31 32 31 31 27 28 32 35 39 39 38 38 35
29 32 33 34 35 37 33 34 34 32 31 31 29 30 31 33 36 37 38 34 36 36
32 33 34 34 37 37 34 39 34 36 31 30 31 32 33 35 33 38 40 44 45 42
34 34 34 35 35 35 40 36 39 36 32 32 32 37 36 36 33 32 43 46 48 49
Wind_Direction
6 360 351 338 323 309 302 296 297 294 295 297 290 291 286 272 268 265 259 259 264 263
1 358 355 353 350 345 340 332 318 298 291 286 282 288 288 281 275 271 269 267 269 265
351 349 346 344 341 338 335 336 333 332 328 317 300 290 286 285 281 275 274 273 271 268
334 329 323 327 327 327 326 325 324 325 324 321 318 317 313 297 284 280 281 277 275 272
336 332 332 333 333 334 334 332 330 325 321 317 315 316 315 313 310 306 300 288 285 281
333 331 333 333 333 332 332 330 329 328 327 325 322 317 312 308 310 311 308 302 299 293
328 328 329 328 327 327 327 326 326 326 324 323 322 320 319 317 309 309 309 305 301 297
319 319 321 322 322 321 321 321 321 323 322 323 319 318 313 307 310 314 312 308 307 303
311 314 318 320 321 321 320 320 322 322 320 319 319 313 317 325 317 311 309 306 306 306
315 323 326 325 325 324 320 320 321 317 321 319 320 324 326 316 317 316 312 311 308 307
322 325 327 327 325 324 323 324 320 324 317 320 320 322 315 318 312 312 311 314 316 314
327 327 328 327 326 325 326 319 323 319 321 318 318 317 323 322 328 328 323 323 316 316
327 326 325 325 322 323 319 319 317 320 319 320 314 319 323 327 329 326 326 326 326 319
328 325 324 322 323 318 321 318 319 317 319 314 319 320 324 328 330 324 319 324 325 325